Find Starlink 34259

NORAD ID: 65368 Int'l Des: 2025-190 Owner: SPXS Country: US Constellation: starlink operational
LEOCIRCULAR

Aktuelle Ansicht

3D-Globus wird geladen...

Über Starlink 34259

Beschreibung wird geladen...

Nächste Überflüge

Passes for default location (London). Set your location on the main map for personalized predictions.

Höhenverlauf

Loading altitude history...

Zweizeiliger Elementsatz

1 65368U 25190T 26149.45703281 .00028226 00000-0 84352-3 0 9992
2 65368 53.1590 152.8378 0001441 81.7074 278.4092 15.34395132 42121
Epoch: 29. Mai 2026 • Age: 25 hours

Aktueller Status

Höhe 467.7 km
Geschwindigkeit 7.64 km/s
Subsatellitenpunkt 51.12°N, 174.16°W
Startdatum 28. Aug. 2025
Alter 0.7 years
Typ internet

Technische Details

Klassifizierung Payload
Masse 575.00 kg
Trockenmasse 530.00 kg
Gesamtmasse 575.00 kg
Länge 0.30 m
Durchmesser 4.10 m
Spannweite 29.00 m
Form Box + pan
Hersteller SPXS
Bus-Typ Starlink V2MO
Phasenstatus In Orbit
Besitzer/Staat SPXS/US

Most Searched